Location: Olomouc
(49.5830°N, 17.2500°E)
Time: 02:25:05
(UTC+01:00)

ISS - Pass Details

Date: 05 October 2020
Orbit: 417 x 420 km, 51.6° (Epoch: 25 October)

Event Time Altitude Azimuth Distance (km) Brightness Sun altitude
Rises 19:33:02 0° 287° (WNW) 2,369 1.9 -12.6°
Reaches altitude 10° 19:35:19 10° 275° (W) 1,502 0.6 -13.0°
Maximum altitude 19:38:12 27° 216° (SW) 849 -1.9 -13.4°
Enters shadow 19:41:03 10° 157° (SSE) 1,477 -1.3 -13.9°
